Wind_Speed
37 38 40 41 42 42 43 40 39 40 37 37 39 38 39 38 35 35 36 37 37 36 34 31 29 26 24 23 22 23 19 17 23 28 36 30 30 26 26 34 31 32 30
32 35 35 33 31 31 33 35 40 43 41 40 39 42 43 44 39 36 36 36 37 36 34 31 29 27 27 25 22 21 21 21 25 27 34 36 26 26 23 34 32 34 33
29 29 29 22 21 19 23 26 28 33 39 42 46 48 48 45 39 35 35 37 36 37 35 33 30 28 27 27 25 25 21 21 29 30 24 23 24 23 26 31 35 38 36
21 22 20 18 20 19 19 26 31 33 35 35 37 41 46 43 39 35 35 37 37 38 37 34 31 29 27 27 25 25 25 25 26 34 26 27 27 27 30 30 32 34 32
14 14 16 19 18 17 20 19 22 25 29 31 35 38 38 38 38 35 35 37 39 39 37 35 30 27 27 25 27 26 32 24 25 29 29 30 34 33 31 32 33 36 35
12 9 12 15 20 21 20 21 23 20 22 25 31 30 31 36 37 42 38 38 36 39 37 33 28 27 27 26 30 27 25 32 32 30 30 30 28 30 35 36 32 32 37
22 19 15 11 16 23 24 27 31 31 33 31 32 30 32 36 38 33 35 37 38 39 34 31 27 26 26 26 30 32 32 29 33 32 31 33 34 28 29 29 28 33 35
22 23 17 16 12 9 18 22 19 27 27 28 33 34 39 38 28 29 38 33 37 37 34 30 25 22 25 26 29 34 38 40 42 34 40 46 36 37 38 39 35 39 37
17 17 18 21 21 17 14 9 15 17 20 27 24 33 41 44 44 33 34 31 37 37 33 28 25 26 24 27 28 28 30 31 32 32 33 33 35 36 35 35 31 35 36
16 17 19 18 17 17 20 17 15 12 9 13 19 23 28 32 34 37 34 34 32 37 35 34 34 34 30 35 37 35 39 35 36 35 35 35 37 33 32 27 27 30 32
20 21 21 20 19 18 18 17 17 16 15 13 10 9 15 21 32 35 35 35 36 36 39 33 33 33 35 39 46 40 38 35 35 35 34 36 34 31 30 28 25 28 31
21 21 20 20 19 18 17 17 16 15 15 14 13 12 10 10 9 15 23 35 38 40 41 41 40 39 38 40 37 37 37 36 37 36 36 34 37 35 32 32 32 35 37
21 21 22 22 21 20 19 17 17 17 16 14 13 12 11 11 10 8 7 9 13 15 27 28 35 40 46 47 43 40 46 45 48 43 48 46 43 44 44 44 42 40 43
24 25 24 23 23 24 23 22 20 19 18 17 17 15 14 12 10 10 9 8 7 7 6 9 15 19 23 27 33 39 42 41 35 33 35 37 38 39 37 39 40 38 40
27 27 27 28 28 27 25 24 23 22 21 20 20 18 17 16 16 15 14 12 10 9 10 8 8 9 10 11 12 14 16 19 22 24 29 33 30 28 32 32 30 31 29
28 29 31 32 32 32 31 30 28 26 24 23 23 23 22 20 19 18 17 19 20 18 16 14 12 10 9 9 10 11 13 14 13 13 14 16 17 17 17 17 18 19 20
30 31 32 33 34 34 34 32 30 30 29 27 25 25 24 24 22 21 21 20 19 19 20 22 22 21 19 17 16 14 14 15 16 18 19 21 21 21 19 19 21 22 23
33 35 37 37 36 36 36 35 33 31 29 29 28 26 25 25 25 25 24 23 22 21 20 19 18 19 21 22 22 21 21 21 21 21 22 22 22 22 22 23 23 24 25
32 33 35 37 38 38 37 36 35 33 31 29 28 28 27 25 24 24 23 23 22 22 21 21 20 20 19 19 19 20 22 22 23 23 24 25 25 25 25 25 24 25 25
31 32 33 33 34 35 35 33 32 31 30 30 28 27 26 26 25 25 24 24 24 23 22 22 22 21 21 20 20 20 20 20 21 21 21 22 22 21 21 21 22 22 23
31 32 31 31 32 32 32 31 30 28 27 26 26 26 25 25 24 24 24 23 23 23 23 23 23 23 22 22 22 21 21 21 21 21 21 22 22 22 22 22 23 22 22
31 31 30 30 30 30 30 29 28 27 25 24 23 23 23 23 23 22 22 22 23 23 22 22 22 23 23 22 22 22 21 21 21 21 21 22 22 21 21 21 21 21 21
30 30 30 29 29 29 28 28 27 27 25 24 22 21 20 20 21 20 20 19 19 19 20 20 20 20 20 21 21 21 20 20 20 20 20 20 20 20 20 21 21 21 21
31 30 29 29 28 27 27 26 26 26 26 24 22 21 19 18 18 19 20 19 19 19 18 17 17 17 17 17 17 18 18 19 19 20 20 20 20 21 21 21 22 22 22
30 29 28 28 27 27 27 26 25 25 25 24 23 21 20 18 18 18 18 18 17 17 17 18 19 19 20 20 19 19 19 19 19 20 20 20 21 21 21 20 20 20 21
31 30 28 28 28 28 27 27 27 25 24 23 23 22 21 19 18 17 18 19 20 19 18 18 18 18 18 18 18 19 19 19 20 20 20 20 20 20 20 20 20 20 20
Wind_Direction
259 263 265 266 262 259 256 252 251 252 245 243 245 246 249 254 259 254 250 251 257 253 262 270 274 267 251 254 258 268 238 243 248 262 239 229 254 250 242 212 220 223 227
261 265 265 265 261 258 257 254 244 242 247 246 243 245 248 251 254 254 250 252 253 250 259 266 267 262 249 242 249 262 253 259 236 243 232 246 250 240 235 214 223 230 234
269 267 269 277 274 258 248 243 242 240 243 245 243 244 246 245 252 257 251 250 250 248 255 261 262 258 251 241 242 250 246 245 242 250 253 233 227 226 226 229 229 234 236
274 264 264 263 265 257 246 240 243 246 247 247 246 246 244 246 250 257 250 246 248 246 252 258 259 255 254 242 235 246 248 242 241 240 248 251 232 229 236 233 232 231 239
299 273 251 249 263 261 253 249 247 247 248 252 245 241 244 245 249 247 240 244 245 245 250 256 258 256 256 245 243 233 248 250 245 243 251 254 250 246 250 253 249 245 251
11 325 286 273 264 258 256 253 252 251 250 252 256 241 236 247 250 246 236 238 245 246 249 254 255 254 252 250 239 235 245 246 248 243 247 263 248 250 254 258 256 254 252
23 15 360 306 272 259 256 264 268 262 256 254 255 252 258 255 239 230 225 227 250 247 248 248 249 253 255 248 244 233 240 247 249 251 246 249 256 250 250 248 246 246 255
22 28 20 23 11 300 274 279 281 253 260 267 254 253 258 249 243 247 227 229 248 242 240 238 242 249 258 261 255 242 243 245 242 247 247 253 248 251 255 251 255 253 257
17 17 20 28 29 19 10 302 282 282 269 258 270 264 255 258 239 223 228 249 251 241 234 232 235 248 260 261 260 256 247 250 242 249 257 256 254 251 249 252 244 247 249
15 17 20 20 16 17 23 20 15 6 334 297 277 277 254 252 250 233 237 255 244 234 234 237 243 254 264 268 266 250 250 252 252 254 254 248 252 250 251 244 240 243 253
10 12 11 8 8 7 6 2 7 9 12 8 351 320 282 265 247 244 247 233 232 234 238 243 246 247 245 255 258 253 249 246 247 249 247 252 252 254 254 257 256 254 262
0 1 360 359 359 360 358 355 352 346 348 0 3 351 345 338 314 277 261 245 236 235 230 236 245 245 248 261 259 238 244 237 243 250 245 248 248 247 241 251 260 259 257
354 350 347 345 345 344 344 343 342 339 335 329 325 332 338 346 343 345 327 295 275 271 262 250 239 239 242 242 239 244 238 235 237 236 238 238 237 243 250 257 259 264 257
347 344 343 341 338 335 332 332 330 329 326 323 319 314 303 305 312 323 327 315 307 280 269 267 268 267 260 252 244 243 241 239 241 240 241 242 245 248 250 256 258 253 253
339 338 335 332 330 329 326 323 319 317 314 312 309 308 307 303 293 285 283 287 291 290 287 277 269 266 264 253 249 249 249 246 244 247 249 249 247 243 246 243 237 233 236
334 331 329 327 325 323 320 317 315 312 308 304 303 302 302 300 298 294 287 280 275 274 275 277 279 271 264 262 260 256 254 252 252 253 255 255 255 254 250 250 251 252 251
330 328 326 323 320 317 314 312 309 304 302 301 297 294 292 291 291 289 289 288 285 280 275 272 272 269 271 269 263 260 257 256 256 255 254 254 256 257 258 257 258 259 262
329 326 323 321 318 314 310 308 305 301 298 295 293 292 290 288 286 284 283 281 280 279 280 279 273 269 266 265 265 261 259 262 262 262 262 263 263 263 263 261 260 260 262
327 325 323 321 319 317 313 309 305 302 299 296 293 290 287 285 283 283 281 279 277 275 275 275 275 275 272 268 264 263 263 263 262 262 262 263 262 263 265 267 268 269 270
328 327 325 322 319 318 316 312 308 304 301 298 296 294 291 288 286 282 279 277 277 276 275 273 270 269 268 267 266 265 264 263 262 262 262 262 263 264 264 263 262 262 262
327 326 324 322 320 317 315 313 312 309 307 303 300 296 295 295 291 288 286 283 279 276 275 274 273 272 270 269 267 266 264 263 263 263 263 264 263 262 261 262 262 264 265
324 323 320 319 317 316 314 312 311 310 310 309 307 304 300 297 296 296 293 289 286 283 278 275 274 274 274 273 272 270 268 266 265 264 263 264 265 266 267 268 269 270 272
320 319 317 317 315 315 313 310 309 308 308 309 309 307 304 301 297 295 293 291 288 286 285 283 281 278 275 273 272 272 272 272 271 270 269 270 271 272 273 274 274 275 275
318 316 315 315 314 313 312 310 308 307 307 307 306 305 303 301 298 297 295 291 287 284 282 279 279 278 277 275 272 270 269 270 270 270 271 272 272 273 274 275 277 278 278
316 315 314 313 312 311 311 311 310 308 306 306 306 304 302 297 294 293 295 295 292 289 285 281 278 276 275 275 275 274 273 272 272 271 272 273 273 275 276 277 278 278 279
315 314 313 312 311 310 309 309 308 308 307 306 305 305 305 303 299 291 285 284 285 286 285 283 281 280 279 278 277 277 277 276 275 274 274 274 275 275 275 275 276 277 278
Height
3009 3010 3011 3011 3012 3014 3017 3021 3023 3025 3030 3033 3036 3037 3040 3042 3043 3044 3045 3048 3049 3052 3054 3054 3054 3053 3053 3054 3055 3055 3055 3056 3058 3060 3064 3067 3069 3072 3074 3076 3083 3087 3090
3000 3000 3001 3002 3002 3003 3005 3009 3012 3015 3017 3021 3025 3026 3029 3032 3033 3034 3035 3039 3041 3043 3046 3047 3047 3046 3047 3047 3048 3048 3048 3050 3054 3056 3058 3060 3063 3066 3069 3072 3077 3081 3084
2991 2991 2991 2992 2993 2995 2996 2999 3002 3005 3008 3011 3014 3016 3018 3022 3023 3024 3026 3029 3032 3035 3037 3038 3039 3039 3039 3040 3042 3043 3045 3046 3049 3050 3053 3055 3057 3060 3063 3066 3069 3073 3075
2984 2983 2985 2988 2988 2990 2990 2992 2994 2996 2999 3001 3004 3006 3009 3011 3014 3015 3016 3019 3023 3026 3029 3030 3031 3031 3031 3033 3035 3038 3039 3040 3043 3044 3047 3049 3051 3054 3056 3059 3062 3064 3066
2978 2978 2980 2982 2983 2984 2984 2986 2987 2988 2989 2992 2993 2995 2998 3002 3004 3005 3007 3011 3014 3017 3020 3022 3022 3022 3023 3025 3028 3031 3032 3034 3036 3038 3039 3042 3044 3046 3049 3052 3054 3057 3057
2977 2976 2976 2976 2978 2979 2979 2981 2982 2981 2983 2984 2985 2980 2985 2991 2995 2996 2997 3001 3004 3008 3011 3013 3013 3014 3015 3017 3020 3024 3025 3026 3029 3028 3032 3034 3035 3038 3039 3041 3045 3045 3047
2978 2975 2973 2971 2971 2972 2972 2973 2974 2975 2976 2977 2978 2979 2979 2980 2978 2976 2981 2990 2995 2999 3002 3004 3004 3006 3008 3010 3012 3015 3018 3018 3021 3023 3025 3025 3027 3030 3033 3035 3035 3038 3040
2981 2978 2976 2973 2969 2967 2967 2967 2966 2967 2967 2969 2969 2969 2971 2973 2975 2969 2977 2981 2987 2990 2993 2995 2996 2998 2999 3002 3003 3005 3008 3010 3012 3013 3016 3019 3019 3022 3023 3026 3028 3030 3030
2983 2981 2978 2974 2971 2968 2966 2963 2962 2961 2961 2961 2962 2963 2963 2964 2964 2969 2968 2973 2977 2981 2984 2986 2988 2989 2991 2993 2995 2997 2999 3001 3003 3005 3007 3010 3011 3012 3013 3015 3017 3019 3021
2985 2982 2978 2975 2973 2970 2968 2965 2961 2958 2956 2956 2957 2956 2956 2955 2955 2961 2960 2966 2967 2971 2975 2978 2979 2980 2981 2984 2986 2988 2991 2993 2995 2996 2997 2999 3001 3003 3004 3006 3008 3010 3012
2984 2981 2978 2976 2973 2971 2968 2966 2964 2961 2958 2955 2953 2952 2953 2952 2953 2952 2953 2955 2955 2959 2963 2965 2968 2970 2972 2973 2973 2977 2980 2983 2984 2986 2988 2990 2992 2994 2996 2998 3000 3002 3003
2986 2983 2980 2977 2974 2971 2969 2966 2964 2962 2959 2957 2955 2952 2950 2948 2946 2946 2947 2946 2947 2946 2950 2954 2956 2958 2961 2962 2962 2964 2968 2972 2974 2977 2979 2981 2983 2984 2987 2988 2990 2992 2994
2986 2983 2980 2977 2974 2972 2969 2967 2964 2961 2960 2958 2956 2953 2951 2949 2946 2944 2941 2939 2941 2941 2941 2942 2943 2945 2949 2951 2953 2955 2957 2958 2960 2963 2965 2967 2969 2973 2973 2974 2978 2979 2981
2985 2982 2979 2977 2975 2971 2968 2965 2963 2961 2958 2957 2955 2952 2951 2949 2946 2943 2941 2940 2940 2939 2938 2937 2937 2938 2940 2941 2942 2944 2945 2947 2950 2951 2952 2954 2955 2957 2958 2961 2964 2965 2967
2983 2980 2977 2974 2972 2969 2967 2964 2961 2958 2956 2954 2952 2950 2947 2945 2943 2941 2941 2940 2938 2938 2938 2936 2934 2935 2936 2935 2936 2936 2937 2938 2940 2942 2943 2945 2947 2947 2946 2948 2950 2951 2953
2980 2976 2973 2970 2967 2964 2962 2960 2957 2954 2952 2949 2947 2945 2943 2941 2939 2938 2937 2935 2935 2935 2934 2934 2934 2933 2932 2931 2932 2933 2934 2935 2936 2937 2939 2940 2941 2942 2940 2942 2945 2946 2947
2976 2973 2969 2966 2963 2960 2957 2954 2951 2948 2946 2943 2941 2939 2937 2936 2934 2933 2931 2929 2929 2928 2928 2929 2929 2928 2928 2928 2929 2929 2930 2931 2932 2933 2934 2935 2935 2935 2935 2936 2938 2940 2942
2970 2966 2963 2960 2957 2953 2950 2947 2944 2942 2939 2937 2934 2932 2930 2929 2928 2926 2925 2925 2924 2923 2922 2922 2923 2922 2922 2923 2923 2924 2924 2925 2925 2926 2927 2928 2929 2929 2929 2930 2931 2932 2934
2965 2961 2957 2953 2949 2946 2943 2940 2937 2934 2932 2929 2928 2926 2924 2922 2921 2919 2918 2918 2917 2916 2916 2915 2915 2915 2915 2916 2917 2918 2918 2918 2919 2919 2920 2921 2922 2921 2921 2922 2924 2925 2926
2958 2954 2950 2947 2944 2940 2936 2933 2930 2927 2924 2921 2920 2918 2917 2915 2914 2912 2911 2911 2910 2910 2910 2909 2909 2909 2909 2910 2911 2911 2911 2913 2913 2913 2913 2915 2915 2915 2916 2916 2918 2919 2920
2952 2948 2944 2941 2937 2934 2930 2927 2923 2920 2917 2914 2912 2910 2909 2907 2906 2905 2904 2903 2903 2902 2902 2902 2902 2902 2903 2903 2904 2905 2906 2906 2906 2906 2907 2909 2909 2909 2909 2910 2910 2912 2913
2946 2942 2939 2935 2931 2928 2924 2921 2918 2914 2911 2909 2906 2904 2902 2901 2899 2898 2897 2896 2895 2895 2895 2895 2896 2896 2896 2897 2898 2898 2899 2899 2900 2900 2901 2902 2902 2902 2903 2903 2903 2904 2904
2940 2936 2932 2929 2925 2922 2918 2915 2912 2909 2906 2904 2901 2899 2897 2895 2893 2892 2891 2890 2889 2889 2889 2889 2890 2890 2890 2891 2892 2892 2892 2893 2893 2893 2894 2895 2895 2895 2896 2896 2896 2897 2896
2934 2930 2926 2923 2919 2916 2913 2910 2906 2903 2900 2898 2896 2894 2892 2890 2888 2887 2886 2885 2884 2884 2884 2884 2884 2884 2885 2885 2885 2886 2886 2886 2887 2887 2887 2888 2888 2888 2888 2889 2889 2889 2889
2928 2924 2920 2917 2913 2910 2907 2904 2901 2898 2895 2892 2890 2888 2886 2885 2884 2882 2881 2880 2879 2879 2879 2879 2879 2878 2878 2878 2879 2879 2879 2880 2880 2880 2880 2881 2881 2882 2881 2881 2881 2881 2881
2922 2918 2914 2911 2907 2903 2900 2897 2894 2892 2889 2887 2884 2882 2880 2879 2878 2877 2876 2875 2874 2873 2873 2873 2873 2873 2873 2873 2873 2873 2873 2873 2873 2873 2873 2874 2874 2874 2874 2874 2874 2874 2874